TimeCDT,TemperatureF,Dew PointF,Humidity,Sea Level PressureIn,VisibilityMPH,Wind Direction,Wind SpeedMPH,Gust SpeedMPH,PrecipitationIn,Events,Conditions,WindDirDegrees,DateUTC
12:14 AM,62.6,57.2,82,29.97,10.0,NE,4.6,-,N/A,,Scattered Clouds,50,2013-07-21 05:14:00
12:33 AM,62.6,57.2,82,29.97,10.0,ENE,5.8,-,N/A,,Clear,70,2013-07-21 05:33:00
12:54 AM,62.6,57.2,82,29.96,10.0,East,6.9,-,N/A,,Clear,80,2013-07-21 05:54:00
1:13 AM,60.8,57.2,88,29.95,10.0,ENE,5.8,-,N/A,,Clear,70,2013-07-21 06:13:00
1:33 AM,60.8,57.2,88,29.95,10.0,ENE,5.8,-,N/A,,Clear,60,2013-07-21 06:33:00
1:54 AM,60.8,57.2,88,29.95,10.0,NE,5.8,-,N/A,,Clear,50,2013-07-21 06:54:00
2:13 AM,60.8,57.2,88,29.95,10.0,ENE,4.6,-,N/A,,Clear,60,2013-07-21 07:13:00
2:33 AM,60.8,57.2,88,29.95,10.0,ENE,5.8,-,N/A,,Clear,60,2013-07-21 07:33:00
2:53 AM,60.8,57.2,88,29.95,10.0,ENE,3.5,-,N/A,,Scattered Clouds,60,2013-07-21 07:53:00
3:13 AM,60.8,57.2,88,29.94,10.0,ENE,4.6,-,N/A,,Mostly Cloudy,60,2013-07-21 08:13:00
3:33 AM,60.8,57.2,88,29.94,10.0,East,5.8,-,N/A,,Scattered Clouds,80,2013-07-21 08:33:00
3:53 AM,59.0,57.2,94,29.94,10.0,ENE,4.6,-,N/A,,Clear,60,2013-07-21 08:53:00
4:14 AM,60.8,57.2,88,29.94,10.0,ENE,4.6,-,N/A,,Scattered Clouds,60,2013-07-21 09:14:00
4:33 AM,60.8,57.2,88,29.93,10.0,ENE,5.8,-,N/A,,Scattered Clouds,70,2013-07-21 09:33:00
4:53 AM,60.8,57.2,88,29.93,10.0,ENE,5.8,-,N/A,,Scattered Clouds,70,2013-07-21 09:53:00
5:13 AM,60.8,57.2,88,29.93,10.0,East,5.8,-,N/A,,Scattered Clouds,80,2013-07-21 10:13:00
5:33 AM,60.8,57.2,88,29.93,10.0,ENE,5.8,-,N/A,,Scattered Clouds,70,2013-07-21 10:33:00
5:54 AM,60.8,57.2,88,29.93,10.0,ENE,5.8,-,N/A,,Scattered Clouds,70,2013-07-21 10:54:00
6:13 AM,59.0,57.2,94,29.93,10.0,East,4.6,-,N/A,,Scattered Clouds,80,2013-07-21 11:13:00
6:33 AM,59.0,57.2,94,29.93,10.0,ENE,4.6,-,N/A,,Scattered Clouds,70,2013-07-21 11:33:00
6:53 AM,59.0,57.2,94,29.93,10.0,ENE,5.8,-,N/A,,Clear,70,2013-07-21 11:53:00
7:13 AM,60.8,57.2,88,29.93,10.0,East,8.1,-,N/A,,Clear,90,2013-07-21 12:13:00
7:34 AM,62.6,55.4,77,29.93,10.0,East,8.1,-,N/A,,Scattered Clouds,90,2013-07-21 12:34:00
7:53 AM,62.6,57.2,82,29.93,10.0,East,6.9,-,N/A,,Mostly Cloudy,100,2013-07-21 12:53:00
8:13 AM,62.6,55.4,77,29.93,10.0,East,8.1,-,N/A,,Mostly Cloudy,90,2013-07-21 13:13:00
8:34 AM,64.4,57.2,77,29.93,10.0,East,10.4,-,N/A,,Scattered Clouds,100,2013-07-21 13:34:00
8:53 AM,64.4,55.4,73,29.92,10.0,East,9.2,-,N/A,,Clear,80,2013-07-21 13:53:00
9:13 AM,64.4,57.2,77,29.93,10.0,East,10.4,-,N/A,,Scattered Clouds,80,2013-07-21 14:13:00
9:33 AM,66.2,57.2,73,29.93,10.0,ESE,8.1,-,N/A,,Scattered Clouds,110,2013-07-21 14:33:00
9:53 AM,68.0,57.2,68,29.93,10.0,East,9.2,-,N/A,,Mostly Cloudy,80,2013-07-21 14:53:00
10:13 AM,69.8,57.2,64,29.93,10.0,ESE,8.1,-,N/A,,Mostly Cloudy,110,2013-07-21 15:13:00
10:33 AM,69.8,57.2,64,29.93,10.0,East,5.8,-,N/A,,Scattered Clouds,80,2013-07-21 15:33:00
10:53 AM,71.6,59.0,64,29.92,10.0,East,5.8,-,N/A,,Scattered Clouds,90,2013-07-21 15:53:00
11:14 AM,73.4,60.8,65,29.92,10.0,East,6.9,-,N/A,,Scattered Clouds,100,2013-07-21 16:14:00
11:33 AM,75.2,60.8,61,29.91,10.0,East,8.1,-,N/A,,Scattered Clouds,100,2013-07-21 16:33:00
11:53 AM,75.2,62.6,65,29.91,10.0,East,8.1,-,N/A,,Clear,90,2013-07-21 16:53:00
12:13 PM,78.8,62.6,57,29.90,10.0,East,6.9,-,N/A,,Clear,90,2013-07-21 17:13:00
12:33 PM,78.8,62.6,57,29.90,10.0,East,9.2,-,N/A,,Clear,100,2013-07-21 17:33:00
12:53 PM,80.6,62.6,54,29.89,10.0,ESE,10.4,-,N/A,,Clear,120,2013-07-21 17:53:00
1:13 PM,78.8,62.6,57,29.89,10.0,East,10.4,-,N/A,,Scattered Clouds,100,2013-07-21 18:13:00
1:33 PM,80.6,62.6,54,29.88,10.0,SE,9.2,-,N/A,,Scattered Clouds,130,2013-07-21 18:33:00
1:53 PM,80.6,62.6,54,29.88,10.0,ESE,10.4,-,N/A,,Scattered Clouds,120,2013-07-21 18:53:00
2:13 PM,80.6,62.6,54,29.87,10.0,SSE,8.1,-,N/A,,Scattered Clouds,160,2013-07-21 19:13:00
2:33 PM,80.6,64.4,58,29.87,10.0,ESE,8.1,-,N/A,,Scattered Clouds,120,2013-07-21 19:33:00
2:53 PM,80.6,64.4,58,29.86,10.0,SSE,8.1,-,N/A,,Scattered Clouds,150,2013-07-21 19:53:00
3:13 PM,80.6,64.4,58,29.86,10.0,ESE,8.1,-,N/A,,Scattered Clouds,120,2013-07-21 20:13:00
3:33 PM,82.4,64.4,54,29.86,10.0,SE,10.4,-,N/A,,Scattered Clouds,140,2013-07-21 20:33:00
3:53 PM,80.6,62.6,54,29.85,10.0,SSE,8.1,-,N/A,,Scattered Clouds,150,2013-07-21 20:53:00
4:13 PM,80.6,64.4,58,29.85,10.0,SE,8.1,-,N/A,,Scattered Clouds,130,2013-07-21 21:13:00
4:34 PM,82.4,62.6,51,29.85,10.0,SE,6.9,16.1,N/A,,Scattered Clouds,140,2013-07-21 21:34:00
4:53 PM,80.6,64.4,58,29.84,10.0,SSE,8.1,-,N/A,,Scattered Clouds,160,2013-07-21 21:53:00
5:13 PM,82.4,64.4,54,29.84,10.0,SSE,9.2,-,N/A,,Scattered Clouds,150,2013-07-21 22:13:00
5:33 PM,82.4,62.6,51,29.82,10.0,SSE,9.2,-,N/A,,Clear,160,2013-07-21 22:33:00
5:53 PM,82.4,64.4,54,29.82,10.0,SE,9.2,-,N/A,,Clear,130,2013-07-21 22:53:00
6:13 PM,82.4,64.4,54,29.82,10.0,SE,10.4,16.1,N/A,,Clear,130,2013-07-21 23:13:00
6:33 PM,80.6,64.4,58,29.81,10.0,SE,10.4,16.1,N/A,,Clear,130,2013-07-21 23:33:00
6:53 PM,80.6,64.4,58,29.80,10.0,SE,8.1,-,N/A,,Clear,140,2013-07-21 23:53:00
7:14 PM,80.6,64.4,58,29.80,10.0,SE,9.2,-,N/A,,Clear,140,2013-07-22 00:14:00
7:33 PM,78.8,64.4,61,29.82,10.0,SSE,6.9,-,N/A,,Clear,160,2013-07-22 00:33:00
7:53 PM,77.0,66.2,69,29.83,10.0,SSE,5.8,-,N/A,,Clear,150,2013-07-22 00:53:00
8:14 PM,75.2,66.2,73,29.81,10.0,SE,6.9,-,N/A,,Clear,130,2013-07-22 01:14:00
8:33 PM,73.4,66.2,78,29.81,10.0,ESE,5.8,-,N/A,,Clear,120,2013-07-22 01:33:00
8:53 PM,73.4,66.2,78,29.80,10.0,ESE,5.8,-,N/A,,Clear,120,2013-07-22 01:53:00
9:13 PM,71.6,66.2,83,29.80,10.0,SE,8.1,-,N/A,,Clear,130,2013-07-22 02:13:00
9:33 PM,71.6,66.2,83,29.80,10.0,SE,8.1,-,N/A,,Clear,140,2013-07-22 02:33:00
9:54 PM,71.6,66.2,83,29.79,10.0,SE,9.2,-,N/A,,Clear,140,2013-07-22 02:54:00
10:13 PM,71.6,66.2,83,29.80,10.0,SSE,8.1,-,N/A,,Clear,150,2013-07-22 03:13:00
10:33 PM,71.6,66.2,83,29.80,10.0,SE,6.9,-,N/A,,Clear,140,2013-07-22 03:33:00
10:53 PM,69.8,66.2,88,29.78,10.0,SE,8.1,-,N/A,,Clear,130,2013-07-22 03:53:00
11:13 PM,69.8,66.2,88,29.78,10.0,SSE,9.2,-,N/A,,Clear,150,2013-07-22 04:13:00
11:34 PM,69.8,66.2,88,29.78,10.0,SE,8.1,-,N/A,,Clear,140,2013-07-22 04:34:00
11:53 PM,69.8,66.2,88,29.77,10.0,SE,9.2,-,N/A,,Clear,140,2013-07-22 04:53:00